Location: Street
(51.1247°N, 2.7429°W)
Time: 02:21:18
(UTC+00:00)

deb Explorer IX - Pass Details

Date: 12 December 2020
Orbit: 536 x 1104 km, 38.8° (Epoch: 20 January)

Event Time Altitude Azimuth Distance (km) Brightness Sun altitude
Rises 14:53:48 0° 260° (W) 3,916 ? 7.0°
Reaches altitude 10° 14:57:08 10° 248° (WSW) 2,933 ? 6.7°
Maximum altitude 15:02:42 25° 197° (SSW) 1,983 ? 6.1°
Drops below altitude 10° 15:07:55 10° 146° (SE) 2,723 ? 5.6°
Sets 15:10:53 0° 133° (SE) 3,579 ? 5.3°
